Startpagina
METAR-TAF:

METAR-TAF

Vliegvelden :

Boulder, Colorado, Verenigde Staten

breedte: 40-02-22N, lengte: 105-13-33W, hoogte: 1612 m

Actueel weer

Dit bericht is 26 minuten geleden gemaakt, om 11:54 UTC
Wind 4 kt uit het zuidwesten
Temperatuur 1°C
Vochtigheid 64%
Druk 1028 hPa
Zicht: 16.1 km
Onbewolkt

METAR: KBDU 161154Z AUTO 22004KT 10SM CLR 01/M05 A3036 RMK AO2

Tijdstip: 06:20 (12:20 UTC)


TAF: ontbreekt

Waarnemingen en weersverwachtingen van meer dan 4000 vliegvelden (METAR en TAF).

De beschikbare stations zijn de gele en rode punten op de kaart.

Ga met uw muis naar het station om de naam te zien.

Klik dan om waarnemingen en weersverwachtingen te zien.

kaart wijzigen: klik op de groene knoppen met een zwart kruis om in te zoomen, op de groene knop met een streepje om uit te zoomen of op de groene pijlen voor aangrenzende kaarten.


METAR-TAF: